Year,Month,Day,Hour,Minute,Value (Times are PST for temperature in C)
2019,05,28,00,00,14.70
2019,05,28,00,01,14.70
2019,05,28,00,02,14.70
2019,05,28,00,03,14.70
2019,05,28,00,04,14.70
2019,05,28,00,05,14.60
2019,05,28,00,06,14.60
2019,05,28,00,07,14.60
2019,05,28,00,08,14.60
2019,05,28,00,09,14.60
2019,05,28,00,10,14.60
2019,05,28,00,11,14.60
2019,05,28,00,12,14.50
2019,05,28,00,13,14.50
2019,05,28,00,14,14.50
2019,05,28,00,15,14.50
2019,05,28,00,16,14.40
2019,05,28,00,17,14.40
2019,05,28,00,18,14.40
2019,05,28,00,19,14.40
2019,05,28,00,20,14.40
2019,05,28,00,21,14.40
2019,05,28,00,22,14.40
2019,05,28,00,23,14.30
2019,05,28,00,24,14.30
2019,05,28,00,25,14.30
2019,05,28,00,26,14.30
2019,05,28,00,27,14.30
2019,05,28,00,28,14.30
2019,05,28,00,29,14.30
2019,05,28,00,30,14.20
2019,05,28,00,31,14.20
2019,05,28,00,32,14.20
2019,05,28,00,33,14.20
2019,05,28,00,34,14.20
2019,05,28,00,35,14.20
2019,05,28,00,36,14.20
2019,05,28,00,37,14.20
2019,05,28,00,38,14.20
2019,05,28,00,39,14.20
2019,05,28,00,40,14.20
2019,05,28,00,41,14.20
2019,05,28,00,42,14.10
2019,05,28,00,43,14.10
2019,05,28,00,44,14.10
2019,05,28,00,45,14.10
2019,05,28,00,46,14.10
2019,05,28,00,47,14.10
2019,05,28,00,48,14.10
2019,05,28,00,49,14.10
2019,05,28,00,50,14.10
2019,05,28,00,51,14.10
2019,05,28,00,52,14.10
2019,05,28,00,53,14.10
2019,05,28,00,54,14.10
2019,05,28,00,55,14.10
2019,05,28,00,56,14.10
2019,05,28,00,57,14.10
2019,05,28,00,58,14.10
2019,05,28,00,59,14.00
2019,05,28,01,00,14.00
2019,05,28,01,01,14.00
2019,05,28,01,02,14.00
2019,05,28,01,03,14.00
2019,05,28,01,04,14.00
2019,05,28,01,05,14.00
2019,05,28,01,06,14.00
2019,05,28,01,07,14.00
2019,05,28,01,08,14.00
2019,05,28,01,09,13.90
2019,05,28,01,10,13.90
2019,05,28,01,11,13.90
2019,05,28,01,12,13.90
2019,05,28,01,13,13.90
2019,05,28,01,14,13.90
2019,05,28,01,15,13.90
2019,05,28,01,16,13.90
2019,05,28,01,17,13.90
2019,05,28,01,18,13.90
2019,05,28,01,19,13.90
2019,05,28,01,20,13.90
2019,05,28,01,21,13.90
2019,05,28,01,22,13.80
2019,05,28,01,23,13.80
2019,05,28,01,24,13.80
2019,05,28,01,25,13.80
2019,05,28,01,26,13.80
2019,05,28,01,27,13.80
2019,05,28,01,28,13.70
2019,05,28,01,29,13.70
2019,05,28,01,30,13.70
2019,05,28,01,31,13.70
2019,05,28,01,32,13.70
2019,05,28,01,33,13.70
2019,05,28,01,34,13.70
2019,05,28,01,35,13.70
2019,05,28,01,36,13.70
2019,05,28,01,37,13.70
2019,05,28,01,38,13.70
2019,05,28,01,39,13.70
2019,05,28,01,40,13.70
2019,05,28,01,41,13.70
2019,05,28,01,42,13.70
2019,05,28,01,43,13.70
2019,05,28,01,44,13.70
2019,05,28,01,45,13.60
2019,05,28,01,46,13.60
2019,05,28,01,47,13.60
2019,05,28,01,48,13.60
2019,05,28,01,49,13.50
2019,05,28,01,50,13.50
2019,05,28,01,51,13.50
2019,05,28,01,52,13.50
2019,05,28,01,53,13.40
2019,05,28,01,54,13.40
2019,05,28,01,55,13.40
2019,05,28,01,56,13.40
2019,05,28,01,57,13.40
2019,05,28,01,58,13.40
2019,05,28,01,59,13.40
2019,05,28,02,00,13.40
2019,05,28,02,01,13.40
2019,05,28,02,02,13.30
2019,05,28,02,03,13.30
2019,05,28,02,04,13.30
2019,05,28,02,05,13.30
2019,05,28,02,06,13.30
2019,05,28,02,07,13.30
2019,05,28,02,08,13.20
2019,05,28,02,09,13.20
2019,05,28,02,10,13.20
2019,05,28,02,11,13.20
2019,05,28,02,12,13.20
2019,05,28,02,13,13.20
2019,05,28,02,14,13.20
2019,05,28,02,15,13.20
2019,05,28,02,16,13.20
2019,05,28,02,17,13.20
2019,05,28,02,18,13.20
2019,05,28,02,19,13.20
2019,05,28,02,20,13.20
2019,05,28,02,21,13.20
2019,05,28,02,22,13.10
2019,05,28,02,23,13.10
2019,05,28,02,24,13.10
2019,05,28,02,25,13.10
2019,05,28,02,26,13.10
2019,05,28,02,27,13.10
2019,05,28,02,28,13.10
2019,05,28,02,29,13.10
2019,05,28,02,30,13.10
2019,05,28,02,31,13.10
2019,05,28,02,32,13.10
2019,05,28,02,33,13.10
2019,05,28,02,34,13.10
2019,05,28,02,35,13.10
2019,05,28,02,36,13.10
2019,05,28,02,37,13.10
2019,05,28,02,38,13.10
2019,05,28,02,39,13.10
2019,05,28,02,40,13.10
2019,05,28,02,41,13.10
2019,05,28,02,42,13.10
2019,05,28,02,43,13.10
2019,05,28,02,44,13.10
2019,05,28,02,45,13.10
2019,05,28,02,46,13.10
2019,05,28,02,47,13.00
2019,05,28,02,48,13.00
2019,05,28,02,49,13.00
2019,05,28,02,50,13.00
2019,05,28,02,51,13.00
2019,05,28,02,52,13.00
2019,05,28,02,53,13.10
2019,05,28,02,54,13.00
2019,05,28,02,55,13.00
2019,05,28,02,56,13.00
2019,05,28,02,57,13.10
2019,05,28,02,58,13.10
2019,05,28,02,59,13.10
2019,05,28,03,00,13.10
2019,05,28,03,01,13.10
2019,05,28,03,02,13.10
2019,05,28,03,03,13.10
2019,05,28,03,04,13.10
2019,05,28,03,05,13.10
2019,05,28,03,06,13.10
2019,05,28,03,07,13.10
2019,05,28,03,08,13.10
2019,05,28,03,09,13.10
2019,05,28,03,10,13.10
2019,05,28,03,11,13.00
2019,05,28,08,40,12.60
2019,05,28,08,41,12.60
2019,05,28,08,42,12.60
2019,05,28,08,43,12.70
2019,05,28,08,44,12.70
2019,05,28,08,45,12.70
2019,05,28,08,46,12.70
2019,05,28,08,47,12.80
2019,05,28,08,48,12.80
2019,05,28,08,49,12.80
2019,05,28,08,50,12.70
2019,05,28,08,51,12.70
2019,05,28,08,52,12.70
2019,05,28,08,53,12.70
2019,05,28,08,54,12.60
2019,05,28,08,55,12.60
2019,05,28,08,56,12.60
2019,05,28,08,57,12.70
2019,05,28,08,58,12.60
2019,05,28,08,59,12.50
2019,05,28,09,00,12.50
2019,05,28,09,01,12.50
2019,05,28,09,02,12.50
2019,05,28,09,03,12.50
2019,05,28,09,04,12.50
2019,05,28,09,05,12.60
2019,05,28,09,06,12.60
2019,05,28,09,07,12.60
2019,05,28,09,08,12.60
2019,05,28,09,09,12.70
2019,05,28,09,10,12.80
2019,05,28,09,11,12.80
2019,05,28,09,12,12.80
2019,05,28,09,13,12.70
2019,05,28,09,14,12.70
2019,05,28,09,15,12.70
2019,05,28,09,16,12.60
2019,05,28,09,17,12.70
2019,05,28,09,18,12.70
2019,05,28,09,19,12.70
2019,05,28,09,20,12.70
2019,05,28,09,21,12.70
2019,05,28,09,22,12.70
2019,05,28,09,23,12.70
2019,05,28,09,24,12.70
2019,05,28,09,25,12.70
2019,05,28,09,26,12.70
2019,05,28,09,27,12.80
2019,05,28,09,28,12.80
2019,05,28,09,29,12.80
2019,05,28,09,30,12.80
2019,05,28,09,31,12.80
2019,05,28,09,32,12.80
2019,05,28,09,33,12.80
2019,05,28,09,34,12.80
2019,05,28,09,35,12.80
2019,05,28,09,36,12.80
2019,05,28,09,37,12.80
2019,05,28,09,38,12.90
2019,05,28,09,39,12.90
2019,05,28,09,40,12.90
2019,05,28,09,41,13.00
2019,05,28,09,42,13.00
2019,05,28,09,43,13.00
2019,05,28,09,44,13.00
2019,05,28,09,45,13.00
2019,05,28,09,46,13.00
2019,05,28,09,47,13.00
2019,05,28,09,48,13.00
2019,05,28,09,49,12.90
2019,05,28,09,50,13.00
2019,05,28,09,51,13.00
2019,05,28,09,52,13.00
2019,05,28,09,53,13.00
2019,05,28,09,54,13.00
2019,05,28,09,55,13.10
2019,05,28,09,56,13.10
2019,05,28,09,57,13.10
2019,05,28,09,58,13.00
2019,05,28,09,59,13.00
2019,05,28,10,00,13.00
2019,05,28,10,01,13.00
2019,05,28,10,02,13.10
2019,05,28,10,03,13.00
2019,05,28,10,04,13.10
2019,05,28,10,05,13.10
2019,05,28,10,06,13.10
2019,05,28,10,07,13.10
2019,05,28,10,08,13.20
2019,05,28,10,09,13.30
2019,05,28,10,10,13.30
2019,05,28,10,11,13.30
2019,05,28,10,12,13.30
2019,05,28,10,13,13.30
2019,05,28,10,14,13.30
2019,05,28,10,15,13.30
2019,05,28,10,16,13.40
2019,05,28,10,17,13.50
2019,05,28,10,18,13.60
2019,05,28,10,19,13.60
2019,05,28,10,20,13.60
2019,05,28,10,21,13.70
2019,05,28,10,22,13.80
2019,05,28,10,23,13.80
2019,05,28,10,24,13.80
2019,05,28,10,25,13.80
2019,05,28,10,26,13.90
2019,05,28,10,27,13.90
2019,05,28,10,28,13.90
2019,05,28,10,29,13.90
2019,05,28,10,30,13.80
2019,05,28,10,31,13.80
2019,05,28,10,32,13.80
2019,05,28,10,33,13.80
2019,05,28,10,34,13.80
2019,05,28,10,35,14.00
2019,05,28,10,36,14.10
2019,05,28,10,37,14.10
2019,05,28,10,38,14.00
2019,05,28,10,39,14.00
2019,05,28,10,40,13.90
2019,05,28,10,41,13.90
2019,05,28,10,42,13.80
2019,05,28,10,43,13.80
2019,05,28,10,44,13.80
2019,05,28,10,45,13.80
2019,05,28,10,46,13.80
2019,05,28,10,47,13.80
2019,05,28,10,48,13.80
2019,05,28,10,49,13.80
2019,05,28,10,50,13.80
2019,05,28,10,51,13.80
2019,05,28,10,52,13.90
2019,05,28,10,53,14.00
2019,05,28,10,54,14.00
2019,05,28,10,55,13.90
2019,05,28,10,56,14.00
2019,05,28,10,57,13.90
2019,05,28,10,58,13.90
2019,05,28,10,59,13.90
2019,05,28,11,00,13.90
2019,05,28,11,01,13.90
2019,05,28,11,02,13.90
2019,05,28,11,03,13.90
2019,05,28,11,04,13.80
2019,05,28,11,05,13.90
2019,05,28,11,06,14.00
2019,05,28,11,07,14.00
2019,05,28,11,08,14.00
2019,05,28,11,09,14.00
2019,05,28,11,10,13.90
2019,05,28,11,11,13.90
2019,05,28,11,12,13.90
2019,05,28,11,13,13.90
2019,05,28,11,14,13.90
2019,05,28,11,15,13.80
2019,05,28,11,16,13.80
2019,05,28,11,17,13.80
2019,05,28,11,18,13.80
2019,05,28,11,19,13.80
2019,05,28,11,20,13.80
2019,05,28,11,21,13.90
2019,05,28,11,22,14.00
2019,05,28,11,23,14.00
2019,05,28,11,24,14.00
2019,05,28,11,25,13.90
2019,05,28,11,26,13.80
2019,05,28,11,27,13.70
2019,05,28,11,28,13.60
2019,05,28,11,29,13.60
2019,05,28,11,30,13.60
2019,05,28,11,31,13.60
2019,05,28,11,32,13.60
2019,05,28,11,33,13.70
2019,05,28,11,34,13.70
2019,05,28,11,35,13.70
2019,05,28,11,36,13.70
2019,05,28,11,37,13.70
2019,05,28,11,38,13.70
2019,05,28,11,39,13.80
2019,05,28,11,40,13.80
2019,05,28,11,41,13.80
2019,05,28,11,42,13.90
2019,05,28,11,43,14.00
2019,05,28,11,44,14.00
2019,05,28,11,45,14.10
2019,05,28,11,46,14.00
2019,05,28,11,47,13.90
2019,05,28,11,48,14.00
2019,05,28,11,49,14.10
2019,05,28,11,50,14.20
2019,05,28,11,51,14.30
2019,05,28,11,52,14.30
2019,05,28,11,53,14.30
2019,05,28,11,54,14.30
2019,05,28,11,55,14.20
2019,05,28,11,56,14.10
2019,05,28,11,57,14.10
2019,05,28,11,58,14.10
2019,05,28,11,59,14.20
2019,05,28,12,00,14.20
2019,05,28,12,01,14.20
2019,05,28,12,02,14.10
2019,05,28,12,03,14.20
2019,05,28,12,04,14.30
2019,05,28,12,05,14.50
2019,05,28,12,06,14.70
2019,05,28,12,07,14.80
2019,05,28,12,08,14.90
2019,05,28,12,09,14.90
2019,05,28,12,10,14.90
2019,05,28,12,11,14.90
2019,05,28,12,12,14.80
2019,05,28,12,13,14.80
2019,05,28,12,14,14.90
2019,05,28,12,15,15.00
2019,05,28,12,16,15.10
2019,05,28,12,17,15.00
2019,05,28,12,18,14.80
2019,05,28,12,19,14.80
2019,05,28,12,20,14.80
2019,05,28,12,21,14.90
2019,05,28,12,22,14.90
2019,05,28,12,23,14.80
2019,05,28,12,24,14.70
2019,05,28,12,25,14.70
2019,05,28,12,26,14.70
2019,05,28,12,27,14.70
2019,05,28,12,28,14.70
2019,05,28,12,29,14.80
2019,05,28,12,30,14.80
2019,05,28,12,31,14.90
2019,05,28,12,32,14.90
2019,05,28,12,33,14.90
2019,05,28,12,34,14.90
2019,05,28,12,35,14.90
2019,05,28,12,36,14.90
2019,05,28,12,37,14.90
2019,05,28,12,38,15.00
2019,05,28,12,39,15.00
2019,05,28,12,40,14.90
2019,05,28,12,41,14.90
2019,05,28,12,42,14.80
2019,05,28,12,43,14.80
2019,05,28,12,44,14.90
2019,05,28,12,45,15.00
2019,05,28,12,46,15.10
2019,05,28,12,47,15.10
2019,05,28,12,48,15.10
2019,05,28,12,49,15.00
2019,05,28,12,50,15.00
2019,05,28,12,51,15.10
2019,05,28,12,52,15.20
2019,05,28,12,53,15.20
2019,05,28,12,54,15.20
2019,05,28,12,55,15.30
2019,05,28,12,56,15.30
2019,05,28,12,57,15.30
2019,05,28,12,58,15.30
2019,05,28,12,59,15.20
2019,05,28,13,00,15.10
2019,05,28,13,01,15.00
2019,05,28,13,02,15.00
2019,05,28,13,03,15.00
2019,05,28,13,04,15.00
2019,05,28,13,05,15.10
2019,05,28,13,06,15.10
2019,05,28,13,07,15.10
2019,05,28,13,08,15.00
2019,05,28,13,09,14.90
2019,05,28,13,10,14.80
2019,05,28,13,11,14.90
2019,05,28,13,12,14.90
2019,05,28,13,13,14.90
2019,05,28,13,14,15.00
2019,05,28,13,15,15.00
2019,05,28,13,16,14.90
2019,05,28,13,17,14.90
2019,05,28,13,18,14.90
2019,05,28,13,19,15.00
2019,05,28,13,20,15.00
2019,05,28,13,21,14.90
2019,05,28,13,22,14.80
2019,05,28,13,23,14.70
2019,05,28,13,24,14.70
2019,05,28,13,25,14.80
2019,05,28,13,26,14.90
2019,05,28,13,27,15.10
2019,05,28,13,28,15.20
2019,05,28,13,29,15.10
2019,05,28,13,30,15.10
2019,05,28,13,31,15.10
2019,05,28,13,32,15.10
2019,05,28,13,33,15.10
2019,05,28,13,34,15.10
2019,05,28,13,35,15.00
2019,05,28,13,36,15.10
2019,05,28,13,37,15.20
2019,05,28,13,38,15.30
2019,05,28,13,39,15.40
2019,05,28,13,40,15.50
2019,05,28,13,41,15.40
2019,05,28,13,42,15.40
2019,05,28,13,43,15.40
2019,05,28,13,44,15.30
2019,05,28,13,45,15.10
2019,05,28,13,46,14.90
2019,05,28,13,47,15.00
2019,05,28,13,48,15.10
2019,05,28,13,49,15.20
2019,05,28,13,50,15.30
2019,05,28,13,51,15.40
2019,05,28,13,52,15.60
2019,05,28,13,53,15.70
2019,05,28,13,54,15.80
2019,05,28,13,55,15.70
2019,05,28,13,56,15.70
2019,05,28,13,57,15.60
2019,05,28,13,58,15.60
2019,05,28,13,59,15.50
2019,05,28,14,00,15.30
2019,05,28,14,01,15.40
2019,05,28,14,02,15.40
2019,05,28,14,03,15.50
2019,05,28,14,04,15.60
2019,05,28,14,05,15.70
2019,05,28,14,06,15.70
2019,05,28,14,07,15.70
2019,05,28,14,08,15.70
2019,05,28,14,09,15.60
2019,05,28,14,10,15.60
2019,05,28,14,11,15.60
2019,05,28,14,12,15.70
2019,05,28,14,13,15.80
2019,05,28,14,14,15.70
2019,05,28,14,15,15.60
2019,05,28,14,16,15.50
2019,05,28,14,17,15.40
2019,05,28,14,18,15.40
2019,05,28,14,19,15.40
2019,05,28,14,20,15.40
2019,05,28,14,21,15.30
2019,05,28,14,22,15.40
2019,05,28,14,23,15.40
2019,05,28,14,24,15.60
2019,05,28,14,25,15.60
2019,05,28,14,26,15.60
2019,05,28,14,27,15.70
2019,05,28,14,28,15.90
2019,05,28,14,29,16.10
2019,05,28,14,30,16.20
2019,05,28,14,31,16.20
2019,05,28,14,32,16.10
2019,05,28,14,33,15.90
2019,05,28,14,34,15.80
2019,05,28,14,35,15.80
2019,05,28,14,36,15.70
2019,05,28,14,37,15.60
2019,05,28,14,38,15.60
2019,05,28,14,39,15.60
2019,05,28,14,40,15.50
2019,05,28,14,41,15.50
2019,05,28,14,42,15.60
2019,05,28,14,43,15.70
2019,05,28,14,44,15.90
2019,05,28,14,45,15.90
2019,05,28,14,46,15.90
2019,05,28,14,47,15.80
2019,05,28,14,48,15.80
2019,05,28,14,49,15.90
2019,05,28,14,50,16.00
2019,05,28,14,51,16.10
2019,05,28,14,52,16.10
2019,05,28,14,53,16.10
2019,05,28,14,54,16.20
2019,05,28,14,55,16.20
2019,05,28,14,56,16.10
2019,05,28,14,57,16.10
2019,05,28,14,58,16.10
2019,05,28,14,59,16.10
2019,05,28,15,00,16.20
2019,05,28,15,01,16.10
2019,05,28,15,02,16.00
2019,05,28,15,03,15.90
2019,05,28,15,04,15.90
2019,05,28,15,05,15.80
2019,05,28,15,06,15.80
2019,05,28,15,07,15.80
2019,05,28,15,08,15.70
2019,05,28,15,09,15.70
2019,05,28,15,10,15.70
2019,05,28,15,11,15.70
2019,05,28,15,12,15.80
2019,05,28,15,13,15.80
2019,05,28,15,14,15.90
2019,05,28,15,15,16.00
2019,05,28,15,16,16.00
2019,05,28,15,17,16.10
2019,05,28,15,18,16.10
2019,05,28,15,19,16.20
2019,05,28,15,20,16.20
2019,05,28,15,21,16.30
2019,05,28,15,22,16.30
2019,05,28,15,23,16.30
2019,05,28,15,24,16.30
2019,05,28,15,25,16.30
2019,05,28,15,26,16.20
2019,05,28,15,27,16.20
2019,05,28,15,28,16.20
2019,05,28,15,29,16.10
2019,05,28,15,30,16.00
2019,05,28,15,31,16.00
2019,05,28,15,32,16.10
2019,05,28,15,33,16.20
2019,05,28,15,34,16.20
2019,05,28,15,35,16.20
2019,05,28,15,36,16.30
2019,05,28,15,37,16.30
2019,05,28,15,38,16.30
2019,05,28,15,39,16.10
2019,05,28,15,40,16.00
2019,05,28,15,41,16.10
2019,05,28,15,42,16.10
2019,05,28,15,43,16.10
2019,05,28,15,44,16.10
2019,05,28,15,45,16.10
2019,05,28,15,46,16.20
2019,05,28,15,47,16.20
2019,05,28,15,48,16.10
2019,05,28,15,49,15.90
2019,05,28,15,50,15.80
2019,05,28,15,51,15.80
2019,05,28,15,52,15.80
2019,05,28,15,53,15.80
2019,05,28,15,54,15.90
2019,05,28,15,55,15.90
2019,05,28,15,56,15.80
2019,05,28,15,57,15.70
2019,05,28,15,58,15.80
2019,05,28,15,59,15.80
2019,05,28,16,00,15.80
2019,05,28,16,01,15.90
2019,05,28,16,02,16.00
2019,05,28,16,03,16.10
2019,05,28,16,04,16.10
2019,05,28,16,05,16.10
2019,05,28,16,06,16.00
2019,05,28,16,07,15.90
2019,05,28,16,08,15.90
2019,05,28,16,09,15.90
2019,05,28,16,10,16.00
2019,05,28,16,11,16.10
2019,05,28,16,12,16.10
2019,05,28,16,13,16.00
2019,05,28,16,14,15.90
2019,05,28,16,15,15.90
2019,05,28,16,16,15.90
2019,05,28,16,17,15.80
2019,05,28,16,18,15.90
2019,05,28,16,19,16.00
2019,05,28,16,20,16.10
2019,05,28,16,21,16.10
2019,05,28,16,22,16.00
2019,05,28,16,23,16.00
2019,05,28,16,24,16.00
2019,05,28,16,25,15.90
2019,05,28,16,26,15.90
2019,05,28,16,27,16.00
2019,05,28,16,28,16.00
2019,05,28,16,29,16.00
2019,05,28,16,30,16.00
2019,05,28,16,31,16.00
2019,05,28,16,32,16.00
2019,05,28,16,33,15.90
2019,05,28,16,34,15.80
2019,05,28,16,35,15.70
2019,05,28,16,36,15.70
2019,05,28,16,37,15.60
2019,05,28,16,38,15.60
2019,05,28,16,39,15.60
2019,05,28,16,40,15.60
2019,05,28,16,41,15.60
2019,05,28,16,42,15.60
2019,05,28,16,43,15.60
2019,05,28,16,44,15.70
2019,05,28,16,45,15.70
2019,05,28,16,46,15.70
2019,05,28,16,47,15.70
2019,05,28,16,48,15.60
2019,05,28,16,49,15.70
2019,05,28,16,50,15.60
2019,05,28,16,51,15.70
2019,05,28,16,52,15.80
2019,05,28,16,53,15.80
2019,05,28,16,54,16.00
2019,05,28,16,55,16.00
2019,05,28,16,56,16.00
2019,05,28,16,57,15.90
2019,05,28,16,58,15.80
2019,05,28,16,59,15.80
2019,05,28,17,00,15.80
2019,05,28,17,01,15.80
2019,05,28,17,02,15.90
2019,05,28,17,03,15.90
2019,05,28,17,04,15.90
2019,05,28,17,05,15.80
2019,05,28,17,06,15.80
2019,05,28,17,07,15.80
2019,05,28,17,08,15.80
2019,05,28,17,09,15.70
2019,05,28,17,10,15.70
2019,05,28,17,11,15.80
2019,05,28,17,12,15.90
2019,05,28,17,13,16.00
2019,05,28,17,14,15.90
2019,05,28,17,15,15.90
2019,05,28,17,16,16.00
2019,05,28,17,17,16.00
2019,05,28,17,18,16.10
2019,05,28,17,19,16.30
2019,05,28,17,20,16.30
2019,05,28,17,21,16.30
2019,05,28,17,22,16.30
2019,05,28,17,23,16.40
2019,05,28,17,24,16.40
2019,05,28,17,25,16.40
2019,05,28,17,26,16.40
2019,05,28,17,27,16.30
2019,05,28,17,28,16.30
2019,05,28,17,29,16.30
2019,05,28,17,30,16.40
2019,05,28,17,31,16.50
2019,05,28,17,32,16.50
2019,05,28,17,33,16.60
2019,05,28,17,34,16.70
2019,05,28,17,35,16.70
2019,05,28,17,36,16.60
2019,05,28,17,37,16.60
2019,05,28,17,38,16.60
2019,05,28,17,39,16.70
2019,05,28,17,40,16.60
2019,05,28,17,41,16.40
2019,05,28,17,42,16.40
2019,05,28,17,43,16.40
2019,05,28,17,44,16.30
2019,05,28,17,45,16.40
2019,05,28,17,46,16.40
2019,05,28,17,47,16.30
2019,05,28,17,48,16.30
2019,05,28,17,49,16.20
2019,05,28,17,50,16.10
2019,05,28,17,51,16.10
2019,05,28,17,52,16.00
2019,05,28,17,53,16.00
2019,05,28,17,54,16.00
2019,05,28,17,55,16.10
2019,05,28,17,56,16.10
2019,05,28,17,57,16.00
2019,05,28,17,58,15.90
2019,05,28,17,59,15.70
2019,05,28,18,00,15.70
2019,05,28,18,01,15.70
2019,05,28,18,02,15.80
2019,05,28,18,03,15.80
2019,05,28,18,04,15.80
2019,05,28,18,05,15.70
2019,05,28,18,06,15.70
2019,05,28,18,07,15.70
2019,05,28,18,08,15.70
2019,05,28,18,09,15.70
2019,05,28,18,10,15.70
2019,05,28,18,11,15.70
2019,05,28,18,12,15.70
2019,05,28,18,13,15.70
2019,05,28,18,14,15.70
2019,05,28,18,15,15.70
2019,05,28,18,16,15.70
2019,05,28,18,17,15.80
2019,05,28,18,18,15.80
2019,05,28,18,19,15.60
2019,05,28,18,20,15.30
2019,05,28,18,21,15.10
2019,05,28,18,22,14.90
2019,05,28,18,23,14.70
2019,05,28,18,24,14.40
2019,05,28,18,25,14.30
2019,05,28,18,26,14.20
2019,05,28,18,27,14.10
2019,05,28,18,28,14.10
2019,05,28,18,29,14.10
2019,05,28,18,30,14.00
2019,05,28,18,31,14.00
2019,05,28,18,32,13.90
2019,05,28,18,33,13.90
2019,05,28,18,34,13.80
2019,05,28,18,35,13.80
2019,05,28,18,36,13.80
2019,05,28,18,37,13.80
2019,05,28,18,38,13.80
2019,05,28,18,39,13.80
2019,05,28,18,40,13.70
2019,05,28,18,41,13.70
2019,05,28,18,42,13.60
2019,05,28,18,43,13.50
2019,05,28,18,44,13.50
2019,05,28,18,45,13.50
2019,05,28,18,46,13.50
2019,05,28,18,47,13.40
2019,05,28,18,48,13.40
2019,05,28,18,49,13.40
2019,05,28,18,50,13.40
2019,05,28,18,51,13.30
2019,05,28,18,52,13.30
2019,05,28,18,53,13.20
2019,05,28,18,54,13.20
2019,05,28,18,55,13.20
2019,05,28,18,56,13.30
2019,05,28,18,57,13.30
2019,05,28,18,58,13.30
2019,05,28,18,59,13.40
2019,05,28,19,00,13.40
2019,05,28,19,01,13.40
2019,05,28,19,02,13.30
2019,05,28,19,03,13.30
2019,05,28,19,04,13.40
2019,05,28,19,05,13.50
2019,05,28,19,06,13.50
2019,05,28,19,07,13.50
2019,05,28,19,08,13.60
2019,05,28,19,09,13.60
2019,05,28,19,10,13.60
2019,05,28,19,11,13.60
2019,05,28,19,12,13.50
2019,05,28,19,13,13.50
2019,05,28,19,14,13.50
2019,05,28,19,15,13.60
2019,05,28,19,16,13.60
2019,05,28,19,17,13.60
2019,05,28,19,18,13.60
2019,05,28,19,19,13.70
2019,05,28,19,20,13.70
2019,05,28,19,21,13.80
2019,05,28,19,22,13.90
2019,05,28,19,23,13.90
2019,05,28,19,24,14.00
2019,05,28,19,25,14.00
2019,05,28,19,26,14.10
2019,05,28,19,27,14.10
2019,05,28,19,28,14.20
2019,05,28,19,29,14.20
2019,05,28,19,30,14.30
2019,05,28,19,31,14.30
2019,05,28,19,32,14.30
2019,05,28,19,33,14.40
2019,05,28,19,34,14.40
2019,05,28,19,35,14.40
2019,05,28,19,36,14.40
2019,05,28,19,37,14.40
2019,05,28,19,38,14.40
2019,05,28,19,39,14.40
2019,05,28,19,40,14.40
2019,05,28,19,41,14.50
2019,05,28,19,42,14.50
2019,05,28,19,43,14.50
2019,05,28,19,44,14.50
2019,05,28,19,45,14.50
2019,05,28,19,46,14.50
2019,05,28,19,47,14.50
2019,05,28,19,48,14.40
2019,05,28,19,49,14.40
2019,05,28,19,50,14.40
2019,05,28,19,51,14.30
2019,05,28,19,52,14.30
2019,05,28,19,53,14.30
2019,05,28,19,54,14.30
2019,05,28,19,55,14.30
2019,05,28,19,56,14.30
2019,05,28,19,57,14.30
2019,05,28,19,58,14.30
2019,05,28,19,59,14.30
2019,05,28,20,00,14.40
2019,05,28,20,01,14.40
2019,05,28,20,02,14.40
2019,05,28,20,03,14.40
2019,05,28,20,04,14.40
2019,05,28,20,05,14.40
2019,05,28,20,06,14.40
2019,05,28,20,07,14.40
2019,05,28,20,08,14.40
2019,05,28,20,09,14.40
2019,05,28,20,10,14.40
2019,05,28,20,11,14.40
2019,05,28,20,12,14.40
2019,05,28,20,13,14.40
2019,05,28,20,14,14.50
2019,05,28,20,15,14.50
2019,05,28,20,16,14.50
2019,05,28,20,17,14.50
2019,05,28,20,18,14.50
2019,05,28,20,19,14.50
2019,05,28,20,20,14.60
2019,05,28,20,21,14.60
2019,05,28,20,22,14.70
2019,05,28,20,23,14.70
2019,05,28,20,24,14.70
2019,05,28,20,25,14.70
2019,05,28,20,26,14.80
2019,05,28,20,27,14.80
2019,05,28,20,28,14.80
2019,05,28,20,29,14.90
2019,05,28,20,30,14.90
2019,05,28,20,31,14.90
2019,05,28,20,32,14.90
2019,05,28,20,33,14.90
2019,05,28,20,34,14.90
2019,05,28,20,35,14.90
2019,05,28,20,36,14.90
2019,05,28,20,37,14.90
2019,05,28,20,38,14.90
2019,05,28,20,39,14.90
2019,05,28,20,40,14.90
2019,05,28,20,41,14.90
2019,05,28,20,42,14.90
2019,05,28,20,43,14.80
2019,05,28,20,44,14.80
2019,05,28,20,45,14.80
2019,05,28,20,46,14.70
2019,05,28,20,47,14.70
2019,05,28,20,48,14.70
2019,05,28,20,49,14.70
2019,05,28,20,50,14.70
2019,05,28,20,51,14.70
2019,05,28,20,52,14.70
2019,05,28,20,53,14.60
2019,05,28,20,54,14.60
2019,05,28,20,55,14.60
2019,05,28,20,56,14.60
2019,05,28,20,57,14.60
2019,05,28,20,58,14.50
2019,05,28,20,59,14.50
2019,05,28,21,00,14.50
2019,05,28,21,01,14.50
2019,05,28,21,02,14.50
2019,05,28,21,03,14.40
2019,05,28,21,04,14.40
2019,05,28,21,05,14.40
2019,05,28,21,06,14.40
2019,05,28,21,07,14.40
2019,05,28,21,08,14.40
2019,05,28,21,09,14.40
2019,05,28,21,10,14.40
2019,05,28,21,11,14.40
2019,05,28,21,12,14.40
2019,05,28,21,13,14.30
2019,05,28,21,14,14.30
2019,05,28,21,15,14.30
2019,05,28,21,16,14.30
2019,05,28,21,17,14.30
2019,05,28,21,18,14.30
2019,05,28,21,19,14.20
2019,05,28,21,20,14.20
2019,05,28,21,21,14.10
2019,05,28,21,22,14.10
2019,05,28,21,23,14.00
2019,05,28,21,24,14.00
2019,05,28,21,25,13.90
2019,05,28,21,26,13.90
2019,05,28,21,27,13.90
2019,05,28,21,28,13.80
2019,05,28,21,29,13.80
2019,05,28,21,30,13.80
2019,05,28,21,31,13.80
2019,05,28,21,32,13.80
2019,05,28,21,33,13.80
2019,05,28,21,34,13.80
2019,05,28,21,35,13.70
2019,05,28,21,36,13.70
2019,05,28,21,37,13.70
2019,05,28,21,38,13.70
2019,05,28,21,39,13.60
2019,05,28,21,40,13.60
2019,05,28,21,41,13.60
2019,05,28,21,42,13.50
2019,05,28,21,43,13.50
2019,05,28,21,44,13.40
2019,05,28,21,45,13.40
2019,05,28,21,46,13.40
2019,05,28,21,47,13.40
2019,05,28,21,48,13.40
2019,05,28,21,49,13.40
2019,05,28,21,50,13.30
2019,05,28,21,51,13.30
2019,05,28,21,52,13.30
2019,05,28,21,53,13.30
2019,05,28,21,54,13.30
2019,05,28,21,55,13.20
2019,05,28,21,56,13.20
2019,05,28,21,57,13.20
2019,05,28,21,58,13.20
2019,05,28,21,59,13.20
2019,05,28,22,00,13.20
2019,05,28,22,01,13.20
2019,05,28,22,02,13.20
2019,05,28,22,03,13.20
2019,05,28,22,04,13.20
2019,05,28,22,05,13.20
2019,05,28,22,06,13.20
2019,05,28,22,07,13.20
2019,05,28,22,08,13.20
2019,05,28,22,09,13.20
2019,05,28,22,10,13.20
2019,05,28,22,11,13.20
2019,05,28,22,12,13.20
2019,05,28,22,13,13.20
2019,05,28,22,14,13.20
2019,05,28,22,15,13.10
2019,05,28,22,16,13.10
2019,05,28,22,17,13.10
2019,05,28,22,18,13.00
2019,05,28,22,19,13.00
2019,05,28,22,20,12.90
2019,05,28,22,21,12.90
2019,05,28,22,22,12.90
2019,05,28,22,23,12.80
2019,05,28,22,24,12.80
2019,05,28,22,25,12.80
2019,05,28,22,26,12.80
2019,05,28,22,27,12.80
2019,05,28,22,28,12.80
2019,05,28,22,29,12.80
2019,05,28,22,30,12.80
2019,05,28,22,31,12.80
2019,05,28,22,32,12.80
2019,05,28,22,33,12.80
2019,05,28,22,34,12.80
2019,05,28,22,35,12.80
2019,05,28,22,36,12.80
2019,05,28,22,37,12.80
2019,05,28,22,38,12.80
2019,05,28,22,39,12.80
2019,05,28,22,40,12.80
2019,05,28,22,41,12.80
2019,05,28,22,42,12.80
2019,05,28,22,43,12.80
2019,05,28,22,44,12.80
2019,05,28,22,45,12.80
2019,05,28,22,46,12.80
2019,05,28,22,47,12.80